Zwartkop Nite Race Series 2018/2019 - #4 - 10 km - Provisional Results

Important Information

Thank you for participating in this event & well done on your result!!!

Please rate the event and feel free to add a few comments if you wish.


  Use the Ctrl+F keys on your keyboard to search for a first or last name

Race NoNameSurnameGenderBatchTimeOverallGenderAge CatAge PosPaceNTS Index
795EmmanuelHlopheMaleA00:36:53.311Open103:40/km0.00
484Xandervan der MerweMaleA00:41:26.32214 - 19104:07/km0.00
453Jeanniede BeerFemaleA00:41:34.631Open104:09/km0.00
913SandraMansvelderFemaleA00:41:58.142Open204:10/km0.00
1404RiztaFoucheFemaleA00:42:29.653Open304:13/km0.00
106CobusVisserMaleA00:42:48.16340 - 49104:15/km0.00
808JosephMozotoMaleA00:42:48.27450 - 59104:15/km0.00
373Jeanvan NiekerkMaleA00:42:50.885Open204:16/km0.00
1189BenVenterMaleA00:45:07.89650 - 59204:30/km0.00
721RaymondPhalanndwaMaleA00:46:11.3107Open304:36/km0.00
163MarjoleinMansvelderFemaleA00:46:19.6114Open404:36/km0.00
774LouisAvenantMaleA00:46:27.4128Open404:37/km0.00
369AndriesPieterseMaleA00:47:03.8139Open504:42/km0.00
1255AnriVisserFemaleA00:48:28.9145Open504:49/km0.00
1181SimoneBohrFemaleA00:48:31.0156Open604:51/km0.00
785JanelleVersterFemaleA00:48:37.7167Open704:51/km0.00
178CharlesOrsmond MaleA00:49:56.21710Open604:58/km0.00
1361PieterHollanderMaleA00:49:59.6181150 - 59304:58/km0.00
114PedroLoureiro LemaMaleA00:50:02.41912Open705:00/km0.00
731RuanVenterMaleA00:50:38.22013Open805:03/km0.00
1022LizelleSchreuderFemaleA00:50:44.121840 - 49105:03/km0.00
1185BernhardWestra MaleA00:50:48.4221440 - 49205:03/km0.00
1372MarioMatraiottiMaleA00:52:15.72315Open905:12/km0.00
486FrikkieCoetzerMaleA00:52:18.4241640 - 49305:12/km0.00
765Andrévan KasteropMaleA00:52:20.8251750 - 59405:13/km0.00
108SVEN-PETERLADEWIGMaleA00:53:40.3261840 - 49405:21/km0.00
1000AnnemarieLindeFemaleA00:54:30.9279Open805:27/km0.00
204BernieJansenMaleA00:54:34.1281940 - 49505:27/km0.00
353DeonTaljaardMaleA00:54:36.32920Open1005:27/km0.00
934ReinierPosthumus-MeyjesMaleA00:54:44.1302140 - 49605:27/km0.00
1091Ianvan der MerweMaleA00:54:46.3312240 - 49705:27/km0.00
558AbdulMahomedMaleA00:54:48.7322360 - 69105:27/km0.00
1159AlexMareeMaleA00:54:51.13324Open1105:28/km0.00
644AdriVan den heeverFemaleA00:54:53.33410Open905:28/km0.00
1018DiederickSteynMaleA00:54:55.63525Open1205:28/km0.00
152ManyamaPhetoleMaleA00:54:57.4362650 - 59505:28/km0.00
1414NatashaFourieFemaleA00:58:25.83711Open1005:49/km0.00
1012FanieRobbertseMaleA00:58:29.1382740 - 49805:49/km0.00
1454NatalieKeoughFemaleA00:58:32.03912Open1105:51/km0.00
395Ofentse MolotoMaleA00:58:34.14028Open1305:51/km0.00
323HenkTaljaardMaleA00:58:37.6412950 - 59605:51/km0.00
794Sanet BrielFemaleA00:58:41.1421350 - 59105:51/km0.00
825KobieJoosteFemaleA00:59:18.5431450 - 59205:54/km0.00
287BerthaMolotoFemaleA01:00:35.7441540 - 49206:03/km0.00
390GerdaGroenewaldFemaleA01:04:26.74516Open1206:25/km0.00
946JacobusVermeulenMaleA01:04:30.8463040 - 49906:27/km0.00
683AdriPayneFemaleA01:04:33.7471740 - 49306:27/km0.00
262RurikSinovich MaleA01:04:36.34831Open1406:27/km0.00
870MboyaKwagatiFemaleA01:04:38.6491840 - 49406:27/km0.00
1003Carlavan der WaltFemaleA01:04:41.65019Open1306:27/km0.00
526Jacobus (Bert) du PlessisMaleA01:04:44.2513250 - 59706:27/km0.00
616ChantalKnoetzeFemaleA01:04:46.7522050 - 59306:27/km0.00
868HugoRustMaleA01:05:32.8533340 - 491006:33/km0.00
252Atayanda NazoNazoMaleA01:05:36.05434Open1506:33/km0.00
750BERNICEVAN DER MERWEFemaleA01:06:07.0552140 - 49506:36/km0.00
802ChrisLittleMaleA01:06:40.1563570 - 79106:39/km0.00
680LeonieLootsFemaleA01:07:14.1572260 - 69106:42/km0.00
990AndrewPhokwaniMaleA01:07:18.8583640 - 491106:42/km0.00
382TERESALE ROUX FemaleA01:08:09.7592350 - 59406:48/km0.00
1489SegomotsoKelefetsweMaleA01:08:14.9603740 - 491206:48/km0.00
1354RuthPilaFemaleA01:09:01.96124Open1406:54/km0.00
1270JolandiLabuschagneFemaleA01:10:47.86225Open1507:03/km0.00
180FrancoisLabuschagneMaleA01:10:50.56338Open1607:04/km0.00
504MoniqueGerberFemaleA01:10:54.06426Open1607:04/km0.00
477HeinTempelMaleA01:10:56.06539Open1707:04/km0.00
776Inadu ToitFemaleA01:12:16.66627Open1707:12/km0.00
781Johandu ToitMaleA01:12:19.46740Open1807:12/km0.00
1163WilmaDu PlooyFemaleA01:12:57.3682850 - 59507:16/km0.00
730JacobusLootsMaleA01:13:21.9694160 - 69207:19/km0.00
975cindypelserFemaleA01:13:54.2702940 - 49607:22/km0.00
1321InaBeamishFemaleA01:14:45.7713050 - 59607:27/km0.00
296MarieHayFemaleA01:18:16.1723140 - 49707:48/km0.00
570MeshankKekanaMaleA01:19:02.7734240 - 491307:54/km0.00
347OmphileMabuzaFemaleA01:19:04.8743240 - 49807:54/km0.00
969QaloMasangoFemaleA01:20:09.47533Open1808:00/km0.00
835ManikiMoloiMaleA01:20:11.5764340 - 491408:00/km0.00
829YonelaMsiwaFemaleA01:20:14.97734Open1908:00/km0.00